[[{"header":{"parameterUnit":"m.s-1","parameterCategory":2,"la1":30.2991,"la2":30.254,"lo1":-89.0895,"lo2":-89.0444,"dy":0.0017,"dx":0.0017,"nx":28,"ny":28,"refTime":"2023-07-19T03:00:00:Z","depth":"0","parameterNumber":2,"parameterNumberName":"U-component_of_CURRENTS"},"data":[0,0,0,0,0,0,0,0,0,0,0,0,0,0,0,0,0,0,0,0,0,0,0,0,0,0,0,0,0,0,0,0,0,0,0,0,0,0,0,0,0,0,0,0,0,0,0,0,0,0,0,0,0,0,0,0,0,0,0.3038,0.3039,0,0.3131,0.3131,0.3131,0.2994,0.2991,0.2987,0.2983,0.3034,0.3038,0.3043,0,0,0,0,0,0,0,0,0,0,0,0,0,0.2914,0.2915,0.3037,0.304,0.3042,0.3131,0.3131,0.3132,0.2995,0.299,0.2986,0.2981,0.3032,0.3038,0.3044,0,0,0,0,0,0,0,0,0,0,0,0,0,0.2973,0.2916,0.3037,0.2993,0.299,0.3131,0.3131,0.3132,0.2996,0.299,0.2985,0.2979,0.303,0.3037,0.3045,0.3204,0,0,0.3067,0.307,0,0,0,0,0,0,0,0,0.2969,0.2976,0.2997,0.2996,0.2994,0.3055,0.3107,0.3157,0.2997,0.2982,0.2983,0.2977,0.3049,0.3054,0.3069,0.3206,0.3208,0.3068,0.3072,0.3075,0.3077,0,0,0,0,0,0,0,0.2965,0.2972,0.3063,0.3,0.2998,0.3029,0.3028,0.3116,0.3037,0.2983,0.2976,0.3006,0.3045,0.3062,0.3069,0.3209,0.3067,0.3074,0.3078,0.3081,0.3485,0.3491,0,0,0,0,0,0,0.2974,0.2968,0.306,0.3067,0.298,0.3036,0.3034,0.3032,0.3036,0.3035,0.3011,0.3,0.3052,0.3061,0.307,0.3248,0.3075,0.3082,0.3086,0.3479,0.3487,0.3494,0,0,0,0,0,0,0.2971,0.298,0.3057,0.303,0.3043,0.3044,0.3043,0.3037,0.3047,0.306,0.3054,0.3026,0.3048,0.306,0.3169,0.3249,0.3085,0.3092,0.3472,0.3481,0.349,0.3611,0,0,0,0,0,0,0.2966,0.2977,0.3008,0.303,0.3045,0.3165,0.3049,0.3043,0.3081,0.3066,0.3074,0.3071,0.3045,0.3159,0.3176,0.3256,0.3098,0.3464,0.3476,0.3487,0.3599,0.3624,0.3645,0,0,0,0,0,0.2961,0.3042,0.3007,0.3021,0.3075,0.3171,0.3182,0.3155,0.3087,0.3133,0.3131,0.3071,0.3245,0.3171,0.319,0.3273,0.3458,0.3472,0.3486,0.3589,0.3619,0.3644,0,0,0,0,0,0,0.3002,0.3038,0.2999,0.3081,0.3127,0.3151,0.3226,0.3184,0.3219,0.3203,0.3162,0.3167,0.329,0.3296,0.3213,0.3433,0.3342,0.336,0.3413,0.3442,0.3464,0.3436,0.3104,0,0,0,0,0,0.303,0.3096,0.3116,0.319,0.3223,0.3221,0.3263,0.3237,0.3267,0.3271,0.3278,0.331,0.3377,0.3411,0.3476,0.3614,0.3602,0.3684,0.3706,0.3725,0.3723,0.3811,0.384,0.3541,0.354,0.354,0,0,0.3072,0.3104,0.314,0.3207,0.3241,0.3321,0.323,0.3314,0.3362,0.3286,0.338,0.3401,0.3437,0.3566,0.3623,0.3569,0.3809,0.3743,0.3757,0.3745,0.3829,0.3857,0.3882,0.355,0.3548,0.3547,0,0,0.3215,0.3214,0.3319,0.3364,0.3436,0.3437,0.3463,0.3498,0.3495,0.3599,0.3552,0.3628,0.3729,0.3765,0.3794,0.4006,0.393,0.4026,0.411,0.4197,0.422,0.4241,0.4256,0.4276,0.403,0.403,0.403,0,0.3264,0.3358,0.3374,0.3478,0.3517,0.3489,0.3578,0.3615,0.3672,0.3682,0.3648,0.3786,0.3828,0.3953,0.4015,0.4053,0.4052,0.3986,0.422,0.424,0.4258,0.4268,0.4289,0.4038,0.4037,0.4036,0.4035,0,0.347,0.3534,0.3615,0.3703,0.3757,0.3844,0.3865,0.3911,0.389,0.389,0.3996,0.4052,0.4104,0.416,0.4149,0.431,0.4249,0.4234,0.4127,0.4294,0.4296,0.4316,0.4048,0.4046,0.4043,0.4042,0,0,0.3592,0.3722,0.3745,0.3776,0.3858,0.3911,0.4011,0.4065,0.4084,0.4155,0.4192,0.4344,0.4307,0.4344,0.4352,0.4439,0.4586,0.439,0.4391,0.4362,0.4721,0.4396,0.4384,0.4593,0.4598,0.4602,0.4663,0,0.3732,0.3915,0.3942,0.4077,0.4155,0.413,0.4202,0.4239,0.4249,0.4293,0.4337,0.44,0.4397,0.441,0.4509,0.4551,0.4644,0.4566,0.46,0.46,0.4256,0.4399,0.4087,0.409,0.4681,0.4685,0.4687,0,0.3917,0.3998,0.4143,0.4189,0.4216,0.4275,0.4301,0.4363,0.4409,0.441,0.4461,0.4462,0.4586,0.4564,0.4725,0.4661,0.4717,0.4755,0.4757,0.4416,0.4311,0.4028,0.4101,0.3935,0.4715,0.4713,0.4711,0,0.3979,0.4124,0.4214,0.4246,0.4319,0.4338,0.4355,0.4392,0.4409,0.4472,0.447,0.4583,0.4614,0.4731,0.4771,0.4767,0.491,0.4914,0.4683,0.4659,0.4377,0.4317,0.4249,0.5076,0.5076,0.5076,0.5076,0,0.4103,0.4172,0.4237,0.4289,0.4347,0.4371,0.4409,0.4435,0.4456,0.4474,0.4519,0.4545,0.4662,0.4718,0.4796,0.4742,0.4933,0.4703,0.4665,0.4407,0.4353,0.4176,0.4166,0.5078,0.5077,0.5077,0.5077,0,0.4161,0.4217,0.4313,0.4377,0.4386,0.4419,0.4419,0.4438,0.4451,0.4475,0.4491,0.4536,0.4577,0.464,0.4792,0.4708,0.456,0.47,0.4329,0.4241,0.3772,0.3781,0.3592,0.3524,0.4434,0.4427,0.442,0,0.4202,0.4268,0.4358,0.4389,0.441,0.444,0.4447,0.4448,0.445,0.446,0.447,0.4487,0.4488,0.4482,0.435,0.433,0.433,0.3992,0.3934,0.3687,0.3678,0.3627,0.3587,0.3642,0.363,0.362,0.3612,0,0.427,0.4304,0.4378,0.4443,0.4464,0.4463,0.4464,0.4447,0.4434,0.4424,0.4394,0.4391,0.4261,0.4017,0.3869,0.3826,0.3686,0.3774,0.3675,0.3155,0.2953,0.2883,0.3635,0.3523,0.3532,0.3538,0.3543,0.3547,0.4305,0.4358,0.4454,0.4487,0.4512,0.4471,0.4399,0.4375,0.4329,0.4191,0.4281,0.4102,0.3756,0.3457,0.3373,0.2825,0.3079,0.2666,0.2735,0.2735,0.253,0.3004,0.2733,0.2737,0.2741,0.2744,0.2747,0,0.4329,0.4397,0.4473,0.4504,0.4488,0.4485,0.4392,0.4237,0.4105,0.3983,0.3894,0.339,0.3019,0.2693,0.2067,0.1835,0.1847,0.1746,0.1689,0.1744,0.2278,0.2095,0.1479,0.1479,0.148,0.148,0.148,0.148,0.4358,0.4435,0.4463,0.4459,0.4447,0.4293,0.4184,0.3938,0.3753,0.3288,0.291,0.2754,0.2291,0.166,0.1165,0.1108,0.1115,0.0919,0.1134,0.1544,0.1639,0.1729,0.1553,0.0834,0.0833,0.0465,0.0462,0.0459]},{"header":{"parameterUnit":"m.s-1","parameterCategory":2,"la1":30.2991,"la2":30.254,"lo1":-89.0895,"lo2":-89.0444,"dy":0.0017,"dx":0.0017,"nx":28,"ny":28,"refTime":"2023-07-19T03:00:00:Z","depth":"0","parameterNumber":3,"parameterNumberName":"V-component_of_CURRENTS"},"data":[0,0,0,0,0,0,0,0,0,0,0,0,0,0,0,0,0,0,0,0,0,0,0,0,0,0,0,0,0,0,0,0,0,0,0,0,0,0,0,0,0,0,0,0,0,0,0,0,0,0,0,0,0,0,0,0,0,0,0.0175,0.0175,0,0.0136,0.0135,0.0134,0.0142,0.0143,0.0144,0.0145,0.0162,0.0162,0.0162,0,0,0,0,0,0,0,0,0,0,0,0,0,0.0216,0.0216,0.0175,0.0175,0.0174,0.0136,0.0135,0.0134,0.0142,0.0143,0.0144,0.0146,0.0163,0.0162,0.0162,0,0,0,0,0,0,0,0,0,0,0,0,0,0.0187,0.0215,0.0175,0.0176,0.0176,0.0136,0.0135,0.0134,0.0142,0.0143,0.0145,0.0146,0.0163,0.0162,0.0162,0.0128,0,0,0.0159,0.0159,0,0,0,0,0,0,0,0,0.0189,0.0186,0.0176,0.0176,0.0175,0.0148,0.0156,0.0136,0.0142,0.0152,0.0145,0.0147,0.0163,0.0163,0.0148,0.0129,0.013,0.0159,0.0159,0.0159,0.0159,0,0,0,0,0,0,0,0.0191,0.0187,0.0157,0.0176,0.0175,0.0164,0.0162,0.0151,0.0149,0.0151,0.0152,0.0152,0.0164,0.0148,0.0148,0.013,0.0159,0.0159,0.0158,0.0158,0.0163,0.0164,0,0,0,0,0,0,0.0202,0.0189,0.0158,0.0156,0.0189,0.0163,0.016,0.0153,0.0148,0.0149,0.015,0.0152,0.0148,0.0149,0.0149,0.0183,0.0159,0.0158,0.0158,0.0163,0.0163,0.0164,0,0,0,0,0,0,0.0203,0.0199,0.016,0.0174,0.0169,0.0161,0.0153,0.0151,0.0141,0.0147,0.0149,0.0143,0.015,0.015,0.0139,0.0181,0.0158,0.0157,0.0162,0.0163,0.0163,0.0204,0,0,0,0,0,0,0.0204,0.0199,0.0192,0.0175,0.0168,0.0125,0.0152,0.015,0.0139,0.0141,0.0141,0.0144,0.0151,0.014,0.0138,0.018,0.0157,0.0161,0.0162,0.0163,0.0202,0.0206,0.021,0,0,0,0,0,0.0205,0.0192,0.0192,0.0188,0.016,0.0124,0.0119,0.0117,0.0138,0.0116,0.0127,0.0144,0.0147,0.0138,0.0137,0.018,0.0161,0.0162,0.0163,0.02,0.0205,0.0209,0,0,0,0,0,0,0.0204,0.0191,0.0191,0.0174,0.0146,0.0127,0.0112,0.0114,0.0102,0.0112,0.0127,0.0129,0.0145,0.0141,0.0132,0.0184,0.0166,0.0167,0.0195,0.0199,0.0203,0.0264,0.0156,0,0,0,0,0,0.02,0.019,0.0168,0.0152,0.0139,0.0124,0.0112,0.0107,0.0099,0.0095,0.0099,0.0117,0.0145,0.0153,0.0158,0.0165,0.0215,0.0198,0.0202,0.0205,0.0253,0.0379,0.0401,0.0168,0.0168,0.0168,0,0,0.0197,0.0188,0.0183,0.0151,0.0134,0.0118,0.0119,0.0093,0.0105,0.0099,0.0109,0.0118,0.0146,0.0169,0.0178,0.0173,0.0281,0.0207,0.021,0.0257,0.0383,0.0407,0.0427,0.0168,0.0168,0.0168,0,0,0.0177,0.0173,0.0152,0.0134,0.0107,0.0104,0.0098,0.0073,0.0086,0.0076,0.0109,0.0151,0.0137,0.0204,0.0232,0.0258,0.0294,0.0243,0.0319,0.0439,0.0461,0.0481,0.0511,0.0534,0.0251,0.0251,0.0251,0,0.0168,0.0153,0.0137,0.0114,0.0121,0.0104,0.0096,0.0096,0.0077,0.0121,0.0082,0.0174,0.0179,0.03,0.0307,0.0278,0.0313,0.0299,0.045,0.0471,0.0491,0.0518,0.0543,0.0253,0.0252,0.0252,0.0252,0,0.0134,0.0127,0.0114,0.0099,0.0096,0.0081,0.0092,0.0103,0.0118,0.0144,0.0231,0.0245,0.0324,0.0324,0.0318,0.0472,0.0435,0.0438,0.0448,0.0518,0.0539,0.0564,0.0256,0.0255,0.0254,0.0254,0,0,0.0098,0.0093,0.0088,0.0107,0.0098,0.0101,0.0137,0.0189,0.0266,0.0259,0.0376,0.0424,0.0458,0.0495,0.0512,0.0609,0.0739,0.0579,0.0585,0.0625,0.0947,0.0868,0.0887,0.077,0.0776,0.0781,0.0882,0,0.0075,0.0064,0.007,0.0091,0.0098,0.0134,0.0185,0.0243,0.0294,0.039,0.0472,0.0558,0.0517,0.0565,0.0662,0.0741,0.0818,0.0708,0.0861,0.0865,0.0803,0.092,0.0893,0.098,0.0906,0.0911,0.0914,0,0.0036,0.005,0.0064,0.0143,0.0152,0.0173,0.0307,0.0347,0.0487,0.0535,0.0652,0.0697,0.0853,0.079,0.0992,0.092,0.0944,0.0981,0.0986,0.0937,0.0838,0.091,0.1028,0.0982,0.0952,0.0949,0.0946,0,0.004,0.0056,0.009,0.0103,0.0171,0.0225,0.0278,0.0402,0.0485,0.0645,0.0726,0.0888,0.0984,0.1083,0.1128,0.1081,0.1322,0.1268,0.1214,0.1203,0.1229,0.1212,0.1352,0.1422,0.1421,0.1421,0.1421,0,0.0031,0.006,0.0099,0.012,0.0211,0.025,0.0374,0.0455,0.0595,0.0732,0.0809,0.095,0.1071,0.1193,0.1211,0.1297,0.1394,0.1275,0.1267,0.1227,0.121,0.1207,0.1183,0.1425,0.1424,0.1423,0.1423,0,0.004,0.0046,0.0103,0.0179,0.021,0.0284,0.0411,0.0513,0.0625,0.0809,0.0866,0.1046,0.1217,0.1286,0.1453,0.1405,0.1473,0.1471,0.1363,0.1341,0.1216,0.1194,0.1359,0.1396,0.1451,0.1451,0.145,0,0.0054,0.0072,0.015,0.0197,0.0234,0.0333,0.0416,0.0527,0.0635,0.0875,0.0979,0.1173,0.1349,0.152,0.1502,0.1536,0.1501,0.1455,0.138,0.1257,0.1229,0.1202,0.1221,0.1397,0.1396,0.1396,0.1395,0,0.011,0.0125,0.018,0.0255,0.0331,0.0429,0.0545,0.0631,0.0792,0.0955,0.1192,0.1349,0.1492,0.1569,0.1553,0.1532,0.1433,0.1434,0.1403,0.1299,0.12,0.1211,0.1203,0.1388,0.1388,0.1389,0.1389,0.139,0.0176,0.022,0.0272,0.0347,0.0424,0.053,0.0627,0.0772,0.0961,0.1239,0.1335,0.161,0.1611,0.1626,0.156,0.1357,0.1411,0.1287,0.1294,0.1294,0.1287,0.1207,0.1316,0.1316,0.1316,0.1316,0.1317,0,0.0276,0.0302,0.0365,0.0454,0.0531,0.0559,0.0724,0.0844,0.1079,0.1366,0.1587,0.1734,0.1724,0.1623,0.1352,0.1238,0.1223,0.1184,0.1178,0.1226,0.1246,0.1196,0.1171,0.1171,0.1171,0.1171,0.1171,0.1171,0.0343,0.0404,0.041,0.0529,0.0586,0.0705,0.0802,0.1004,0.1223,0.1535,0.1723,0.1868,0.1749,0.1393,0.1166,0.1128,0.1141,0.1087,0.1141,0.1134,0.1144,0.1153,0.1102,0.1058,0.1058,0.1125,0.1125,0.1125]}],[{"header":{"parameterUnit":"m.s-1","parameterCategory":2,"la1":30.2991,"la2":30.254,"lo1":-89.0895,"lo2":-89.0444,"dy":0.0017,"dx":0.0017,"nx":28,"ny":28,"refTime":"2023-07-19T03:00:00:Z","depth":"2","parameterNumber":2,"parameterNumberName":"U-component_of_CURRENTS"},"data":[0,0,0,0,0,0,0,0,0,0,0,0,0,0,0,0,0,0,0,0,0,0,0,0,0,0,0,0,0,0,0,0,0,0,0,0,0,0,0,0,0,0,0,0,0,0,0,0,0,0,0,0,0,0,0,0,0,0,0.1645,0.1643,0,0.163,0.1631,0.1633,0.1732,0.1733,0.1734,0.1735,0.176,0.176,0.176,0,0,0,0,0,0,0,0,0,0,0,0,0,0.1783,0.1781,0.1645,0.1643,0.1641,0.163,0.1631,0.1633,0.1732,0.1733,0.1734,0.1736,0.1761,0.176,0.176,0,0,0,0,0,0,0,0,0,0,0,0,0,0.1758,0.178,0.1645,0.1676,0.1677,0.163,0.1631,0.1633,0.1731,0.1733,0.1735,0.1736,0.1761,0.176,0.176,0.1722,0,0,0.1758,0.1758,0,0,0,0,0,0,0,0,0.1759,0.1755,0.1673,0.1673,0.1674,0.1668,0.1688,0.1659,0.1731,0.173,0.1735,0.1737,0.172,0.1723,0.1742,0.1723,0.1725,0.1758,0.1757,0.1757,0.1757,0,0,0,0,0,0,0,0.1761,0.1756,0.1658,0.167,0.1671,0.1697,0.1697,0.1685,0.1731,0.173,0.1733,0.1701,0.1724,0.1742,0.1743,0.1725,0.1758,0.1757,0.1757,0.1757,0.1891,0.1895,0,0,0,0,0,0,0.1722,0.1757,0.1658,0.1655,0.1701,0.1691,0.1693,0.1684,0.173,0.1733,0.17,0.1706,0.1742,0.1744,0.1744,0.1846,0.1757,0.1757,0.1756,0.1887,0.1892,0.1896,0,0,0,0,0,0,0.1726,0.1715,0.1658,0.1691,0.1683,0.1685,0.1675,0.1682,0.1726,0.1703,0.1712,0.1737,0.1744,0.1745,0.1802,0.1842,0.1756,0.1756,0.1883,0.1889,0.1894,0.1958,0,0,0,0,0,0,0.1731,0.1717,0.1713,0.1688,0.1679,0.1688,0.1672,0.168,0.1693,0.1702,0.1736,0.174,0.1745,0.1804,0.1802,0.184,0.1755,0.1878,0.1886,0.1892,0.1951,0.1965,0.1977,0,0,0,0,0,0.1736,0.1697,0.1714,0.1701,0.1669,0.1689,0.1692,0.1709,0.1693,0.175,0.1773,0.174,0.185,0.1806,0.1803,0.1842,0.1874,0.1883,0.1892,0.1945,0.1962,0.1977,0,0,0,0,0,0,0.1728,0.1701,0.1719,0.167,0.171,0.17,0.1712,0.1715,0.1774,0.1787,0.1772,0.178,0.1847,0.1844,0.1796,0.1913,0.1862,0.1871,0.1904,0.192,0.1933,0.2005,0.1755,0,0,0,0,0,0.1725,0.1725,0.1715,0.1696,0.1708,0.172,0.1723,0.1752,0.1774,0.1803,0.182,0.1848,0.1875,0.1898,0.1929,0.1971,0.2004,0.2007,0.202,0.2031,0.2095,0.2229,0.226,0.1925,0.1925,0.1925,0,0,0.1724,0.1698,0.1704,0.1701,0.1725,0.1752,0.1736,0.1768,0.1809,0.179,0.1865,0.1887,0.1899,0.1973,0.2002,0.1977,0.2124,0.2042,0.205,0.211,0.2242,0.2274,0.2303,0.1931,0.193,0.1929,0,0,0.172,0.1703,0.1722,0.1749,0.1777,0.1788,0.1801,0.1834,0.1884,0.1934,0.1948,0.2032,0.2026,0.2104,0.2115,0.2223,0.2187,0.2201,0.2324,0.2451,0.248,0.2506,0.2495,0.2521,0.2211,0.2212,0.2212,0,0.1726,0.1736,0.1737,0.1758,0.178,0.1803,0.1854,0.1886,0.1946,0.2011,0.1976,0.2099,0.2105,0.2231,0.2282,0.2255,0.2273,0.2243,0.2468,0.2496,0.2522,0.2505,0.2532,0.2216,0.2215,0.2215,0.2215,0,0.1754,0.177,0.1778,0.1826,0.1858,0.1909,0.1942,0.2013,0.2034,0.2083,0.2224,0.2268,0.2364,0.2361,0.2341,0.2534,0.2461,0.2458,0.242,0.2559,0.2531,0.2558,0.2222,0.222,0.2219,0.2218,0,0,0.1772,0.1802,0.1815,0.1864,0.1911,0.1947,0.202,0.2132,0.2201,0.2285,0.2398,0.25,0.2563,0.2593,0.2607,0.2721,0.2868,0.2674,0.2678,0.2648,0.3057,0.2763,0.2761,0.2898,0.2906,0.2912,0.2927,0,0.1829,0.1876,0.1884,0.1973,0.2017,0.2068,0.2135,0.2236,0.2299,0.2409,0.2524,0.2618,0.2631,0.2677,0.2815,0.2856,0.2959,0.2859,0.2944,0.2946,0.2658,0.2793,0.2558,0.2535,0.2953,0.2958,0.2961,0,0.1873,0.1906,0.199,0.2076,0.2106,0.2159,0.2304,0.2368,0.2514,0.2568,0.2724,0.2773,0.2969,0.293,0.3158,0.3086,0.3115,0.3133,0.3134,0.288,0.2707,0.2488,0.2567,0.3005,0.3002,0.2998,0.2995,0,0.1906,0.1983,0.206,0.2088,0.2178,0.2256,0.232,0.2449,0.2515,0.2684,0.2729,0.2963,0.3032,0.3194,0.3222,0.3218,0.3391,0.338,0.3145,0.3117,0.2952,0.2897,0.3584,0.3584,0.3584,0.3584,0.3584,0,0.1944,0.2014,0.2086,0.2129,0.2252,0.2302,0.243,0.2518,0.2625,0.2702,0.2833,0.2895,0.3114,0.3197,0.3268,0.3248,0.3442,0.3207,0.3148,0.2948,0.2896,0.3354,0.3327,0.3585,0.3584,0.3584,0.3584,0,0.1966,0.2006,0.2104,0.222,0.2261,0.2352,0.2451,0.2523,0.2619,0.2707,0.2757,0.2881,0.2982,0.3104,0.3282,0.323,0.3279,0.3219,0.288,0.2782,0.2904,0.2881,0.3008,0.2999,0.2991,0.2985,0.2979,0,0.1977,0.2024,0.2157,0.2212,0.2272,0.238,0.244,0.2531,0.2563,0.2666,0.2687,0.2792,0.2821,0.2889,0.2873,0.2903,0.3081,0.2627,0.2618,0.2939,0.287,0.2858,0.2846,0.2393,0.2383,0.2375,0.2369,0,0.2019,0.2072,0.2153,0.2245,0.2322,0.2376,0.2445,0.2436,0.2511,0.2575,0.2588,0.2613,0.2602,0.2483,0.2431,0.2428,0.2609,0.2452,0.2982,0.2529,0.2349,0.2282,0.2294,0.2297,0.2304,0.231,0.2313,0.2316,0.2065,0.2121,0.2206,0.2286,0.2358,0.2343,0.2332,0.2352,0.2368,0.2363,0.2389,0.2312,0.2261,0.2052,0.1969,0.1894,0.2116,0.2039,0.2071,0.211,0.1991,0.1803,0.162,0.1623,0.1626,0.1628,0.1631,0,0.2099,0.2161,0.2228,0.2273,0.2281,0.237,0.232,0.2229,0.219,0.215,0.2127,0.1793,0.1639,0.1631,0.1397,0.1317,0.1395,0.1259,0.1394,0.1463,0.1525,0.1385,0.0849,0.0846,0.0844,0.0842,0,0,0.2134,0.2178,0.218,0.2173,0.2233,0.219,0.2157,0.2032,0.1907,0.1734,0.1628,0.1609,0.1554,0.1199,0.1115,0.0958,0.1216,0.0893,0.1519,0.1749,0.1809,0.196,0.1815,0,0,0,0,0]},{"header":{"parameterUnit":"m.s-1","parameterCategory":2,"la1":30.2991,"la2":30.254,"lo1":-89.0895,"lo2":-89.0444,"dy":0.0017,"dx":0.0017,"nx":28,"ny":28,"refTime":"2023-07-19T03:00:00:Z","depth":"2","parameterNumber":3,"parameterNumberName":"V-component_of_CURRENTS"},"data":[0,0,0,0,0,0,0,0,0,0,0,0,0,0,0,0,0,0,0,0,0,0,0,0,0,0,0,0,0,0,0,0,0,0,0,0,0,0,0,0,0,0,0,0,0,0,0,0,0,0,0,0,0,0,0,0,0,0,-0.0022,-0.0022,0,-0.0053,-0.0054,-0.0055,-0.0057,-0.0056,-0.0055,-0.0054,-0.006,-0.0061,-0.0062,0,0,0,0,0,0,0,0,0,0,0,0,0,-0.0017,-0.0017,-0.0022,-0.0022,-0.0022,-0.0053,-0.0054,-0.0055,-0.0057,-0.0056,-0.0054,-0.0053,-0.0059,-0.0061,-0.0062,0,0,0,0,0,0,0,0,0,0,0,0,0,-0.0037,-0.0017,-0.0022,-0.0021,-0.0021,-0.0053,-0.0054,-0.0055,-0.0057,-0.0056,-0.0054,-0.0053,-0.0059,-0.0061,-0.0062,-0.0101,0,0,-0.0067,-0.0068,0,0,0,0,0,0,0,0,-0.0035,-0.0038,-0.0022,-0.0021,-0.0021,-0.0044,-0.0054,-0.0067,-0.0057,-0.005,-0.0054,-0.0052,-0.0049,-0.0051,-0.007,-0.0101,-0.0101,-0.0067,-0.0068,-0.0069,-0.0069,0,0,0,0,0,0,0,-0.0034,-0.0037,-0.0041,-0.0021,-0.0021,-0.0037,-0.0038,-0.0057,-0.0062,-0.0051,-0.0049,-0.0043,-0.0049,-0.0069,-0.007,-0.0101,-0.0067,-0.0068,-0.0069,-0.007,-0.0095,-0.0094,0,0,0,0,0,0,-0.0016,-0.0035,-0.004,-0.0041,-0.0017,-0.0037,-0.0039,-0.0043,-0.0062,-0.0062,-0.0044,-0.0043,-0.0067,-0.0068,-0.007,-0.0046,-0.0069,-0.007,-0.0071,-0.0095,-0.0094,-0.0094,0,0,0,0,0,0,-0.0016,-0.0017,-0.0039,-0.0033,-0.0036,-0.0038,-0.0043,-0.0044,-0.0062,-0.0056,-0.0056,-0.0058,-0.0065,-0.0068,-0.0084,-0.0048,-0.0071,-0.0072,-0.0095,-0.0095,-0.0094,-0.0042,0,0,0,0,0,0,-0.0016,-0.0017,-0.0023,-0.0032,-0.0035,-0.0058,-0.0044,-0.0046,-0.0056,-0.0055,-0.0068,-0.0067,-0.0065,-0.0082,-0.0086,-0.0051,-0.0074,-0.0096,-0.0095,-0.0094,-0.0044,-0.004,-0.0036,0,0,0,0,0,-0.0016,-0.0019,-0.0024,-0.0024,-0.0041,-0.0058,-0.0063,-0.0063,-0.0058,-0.0074,-0.0076,-0.0067,-0.0079,-0.0084,-0.0088,-0.0053,-0.0096,-0.0095,-0.0094,-0.0046,-0.0041,-0.0036,0,0,0,0,0,0,-0.0017,-0.002,-0.0025,-0.0029,-0.0044,-0.0056,-0.0069,-0.007,-0.0089,-0.009,-0.0083,-0.0083,-0.0073,-0.0087,-0.0092,-0.0059,-0.0079,-0.0079,-0.004,-0.0035,-0.0032,0.0011,-0.0075,0,0,0,0,0,-0.0021,-0.0029,-0.0036,-0.0044,-0.0053,-0.0067,-0.0076,-0.008,-0.009,-0.0097,-0.01,-0.0097,-0.0078,-0.0077,-0.0078,-0.0082,-0.005,-0.0057,-0.0053,-0.0049,-0.0018,0.0066,0.0082,-0.0092,-0.0092,-0.0092,0,0,-0.0027,-0.0026,-0.0033,-0.0045,-0.0063,-0.0052,-0.0072,-0.0091,-0.0061,-0.0096,-0.0077,-0.0092,-0.0078,-0.0063,-0.0059,-0.0068,0.0007,-0.0048,-0.0045,-0.0015,0.0068,0.0086,0.0101,-0.0091,-0.0092,-0.0092,0,0,-0.0025,-0.0044,-0.0046,-0.0051,-0.0065,-0.0064,-0.0067,-0.0087,-0.008,-0.0084,-0.0071,-0.0064,-0.0076,-0.0034,-0.0015,0.0004,0.0026,-0.0007,0.005,0.013,0.0147,0.0162,0.0192,0.0209,-0.0004,-0.0004,-0.0004,0,-0.003,-0.0019,-0.0051,-0.0041,-0.0023,-0.0059,-0.0036,-0.0037,-0.0053,-0.0023,-0.007,-0.0027,-0.004,0.005,0.0048,0.0022,0.0047,0.0033,0.0141,0.0156,0.017,0.0198,0.0217,-0.0001,-0.0002,-0.0002,-0.0002,0,-0.0016,-0.0004,-0.0008,0.0009,0.0015,0.0017,0.003,0.0036,0.0031,0.0047,0.0093,0.0063,0.0101,0.0093,0.0069,0.0171,0.0146,0.0139,0.0138,0.0192,0.0216,0.0234,0.0002,0.0001,0.0001,0.0,0,0,-0.0031,-0.0,0.0001,0.0038,0.0047,0.0062,0.0113,0.0167,0.0237,0.0195,0.0291,0.0277,0.0248,0.0267,0.0242,0.029,0.0374,0.0246,0.0249,0.0292,0.0521,0.0426,0.0436,0.0386,0.039,0.0394,0.0486,0,-0.0007,0.0051,0.0059,0.0127,0.0161,0.0174,0.0242,0.0287,0.0312,0.0383,0.0378,0.0422,0.0324,0.0327,0.0366,0.0399,0.0429,0.0348,0.0449,0.0452,0.0376,0.0458,0.0434,0.0509,0.0504,0.0507,0.0509,0,0.001,0.006,0.0131,0.023,0.0245,0.0277,0.04,0.0447,0.0541,0.0559,0.0595,0.0586,0.0648,0.0538,0.0629,0.058,0.0547,0.0547,0.0551,0.0468,0.0393,0.0459,0.0543,0.054,0.0538,0.0536,0.0534,0,0.0047,0.0117,0.019,0.0214,0.0308,0.0351,0.0395,0.0491,0.0568,0.0656,0.0721,0.0776,0.0815,0.0817,0.0762,0.0715,0.0857,0.0802,0.0684,0.0675,0.068,0.0664,0.0861,0.0861,0.0861,0.0861,0.086,0,0.0095,0.0152,0.0203,0.0247,0.0351,0.0383,0.0494,0.0558,0.0664,0.0797,0.0788,0.0908,0.0888,0.0944,0.0865,0.084,0.0939,0.0726,0.0716,0.0687,0.0672,0.072,0.0702,0.0864,0.0863,0.0863,0.0862,0,0.0139,0.0165,0.0257,0.0345,0.0366,0.0433,0.053,0.0629,0.0707,0.0885,0.0915,0.1045,0.1112,0.1061,0.1094,0.0981,0.0954,0.0897,0.0828,0.0807,0.0687,0.0671,0.0818,0.0816,0.0814,0.0812,0.0811,0,0.0179,0.0224,0.0316,0.037,0.0401,0.048,0.0553,0.0632,0.0754,0.0986,0.1106,0.1203,0.1296,0.1279,0.1114,0.0981,0.0953,0.0839,0.0735,0.0719,0.0695,0.0681,0.0667,0.0757,0.0755,0.0754,0.0753,0,0.0276,0.0288,0.0371,0.0464,0.0529,0.0624,0.0728,0.0844,0.0994,0.1133,0.137,0.1448,0.1407,0.1292,0.1061,0.0954,0.0858,0.0803,0.0899,0.0738,0.0661,0.0635,0.0626,0.0741,0.0743,0.0743,0.0744,0.0744,0.0349,0.0417,0.0501,0.0598,0.0657,0.0787,0.0877,0.1038,0.1226,0.1467,0.1533,0.1581,0.145,0.112,0.0966,0.0751,0.0765,0.0668,0.0675,0.0682,0.0625,0.0546,0.0593,0.0593,0.0593,0.0593,0.0594,0,0.0467,0.0528,0.0635,0.0752,0.0835,0.082,0.1013,0.1126,0.1351,0.1503,0.1624,0.142,0.1287,0.1094,0.0758,0.0589,0.0588,0.053,0.0575,0.0587,0.0598,0.0538,0.0482,0.0482,0.0481,0.048,0,0,0.0541,0.0674,0.0733,0.0899,0.0933,0.0997,0.1091,0.1272,0.1378,0.1524,0.1483,0.1508,0.1268,0.1006,0.0816,0.0637,0.0639,0.0591,0.0694,0.0781,0.0793,0.0687,0.0608,0,0,0,0,0]}],[{"header":{"parameterUnit":"m.s-1","parameterCategory":2,"la1":30.2991,"la2":30.254,"lo1":-89.0895,"lo2":-89.0444,"dy":0.0017,"dx":0.0017,"nx":28,"ny":28,"refTime":"2023-07-19T03:00:00:Z","depth":"4","parameterNumber":2,"parameterNumberName":"U-component_of_CURRENTS"},"data":[0,0,0,0,0,0,0,0,0,0,0,0,0,0,0,0,0,0,0,0,0,0,0,0,0,0,0,0,0,0,0,0,0,0,0,0,0,0,0,0,0,0,0,0,0,0,0,0,0,0,0,0,0,0,0,0,0,0,0.0554,0.0553,0,0.0476,0.0475,0.0474,0.0528,0.0531,0.0534,0.0537,0.0519,0.0516,0.0512,0,0,0,0,0,0,0,0,0,0,0,0,0,0.0636,0.0634,0.0554,0.0553,0.0553,0.0477,0.0475,0.0474,0.0528,0.0531,0.0535,0.0538,0.052,0.0516,0.0512,0,0,0,0,0,0,0,0,0,0,0,0,0,0.0579,0.0634,0.0554,0.0574,0.0576,0.0477,0.0475,0.0473,0.0527,0.0531,0.0536,0.054,0.0521,0.0516,0.0512,0.0395,0,0,0.0497,0.0495,0,0,0,0,0,0,0,0,0.0582,0.0575,0.0572,0.0573,0.0574,0.0521,0.0498,0.0452,0.0526,0.054,0.0537,0.0542,0.0525,0.052,0.0488,0.0394,0.0394,0.0497,0.0494,0.0492,0.049,0,0,0,0,0,0,0,0.0586,0.0578,0.0518,0.0571,0.0572,0.0549,0.0546,0.0488,0.0506,0.0539,0.0544,0.0542,0.0526,0.0492,0.0488,0.0393,0.0497,0.0492,0.049,0.0488,0.0441,0.0443,0,0,0,0,0,0,0.0606,0.0582,0.0521,0.0516,0.0595,0.0545,0.0542,0.0529,0.0506,0.0507,0.0539,0.0545,0.0498,0.0494,0.0488,0.0538,0.0492,0.0487,0.0484,0.044,0.0442,0.0444,0,0,0,0,0,0,0.0608,0.0601,0.0524,0.0552,0.0542,0.054,0.0525,0.0526,0.0514,0.0506,0.0508,0.0531,0.0501,0.0495,0.0466,0.0531,0.0485,0.0481,0.0438,0.044,0.0443,0.0517,0,0,0,0,0,0,0.061,0.0602,0.0587,0.0553,0.0541,0.045,0.0522,0.0521,0.0507,0.0515,0.0498,0.05,0.0504,0.0473,0.0461,0.0524,0.0477,0.0436,0.0439,0.0442,0.0513,0.0522,0.053,0,0,0,0,0,0.0613,0.055,0.0586,0.0579,0.0525,0.0447,0.0436,0.0448,0.0503,0.0461,0.049,0.0502,0.0488,0.0467,0.0453,0.0518,0.0434,0.0438,0.0442,0.0509,0.052,0.053,0,0,0,0,0,0,0.0571,0.0549,0.0589,0.0525,0.0497,0.0459,0.0408,0.0441,0.0422,0.0449,0.047,0.0469,0.0479,0.0468,0.0446,0.0519,0.0482,0.0483,0.0539,0.0549,0.0557,0.0571,0.0473,0,0,0,0,0,0.056,0.0515,0.0502,0.0453,0.043,0.0428,0.0401,0.0421,0.0408,0.0406,0.0409,0.0439,0.0472,0.0486,0.0471,0.0468,0.0479,0.0519,0.0528,0.0535,0.054,0.0614,0.063,0.0456,0.0456,0.0456,0,0,0.0529,0.0516,0.049,0.0443,0.0417,0.0387,0.0419,0.0368,0.0398,0.0401,0.0412,0.043,0.0469,0.0497,0.0507,0.0506,0.0588,0.054,0.0546,0.0547,0.062,0.0637,0.0652,0.0458,0.0458,0.0457,0,0,0.0441,0.0431,0.037,0.0349,0.0324,0.033,0.0324,0.0299,0.0335,0.0336,0.0396,0.0429,0.0443,0.0498,0.0538,0.0566,0.061,0.0611,0.0686,0.0758,0.0773,0.0787,0.0812,0.0827,0.0642,0.0642,0.0642,0,0.0428,0.0368,0.0335,0.0291,0.0298,0.0315,0.0294,0.0306,0.0298,0.0348,0.0353,0.0459,0.0448,0.0575,0.0614,0.0584,0.0641,0.0646,0.0771,0.0784,0.0797,0.082,0.0836,0.0646,0.0646,0.0645,0.0645,0,0.0309,0.0286,0.0234,0.0224,0.0209,0.0175,0.0221,0.0242,0.031,0.0356,0.0459,0.0473,0.056,0.059,0.0614,0.0745,0.0759,0.0753,0.0746,0.0819,0.0838,0.0853,0.0652,0.0651,0.0649,0.0648,0,0,0.0261,0.0179,0.0179,0.02,0.0194,0.0185,0.0235,0.0301,0.0396,0.0424,0.055,0.0614,0.0659,0.0705,0.0762,0.084,0.0945,0.0868,0.0869,0.0894,0.1122,0.0978,0.098,0.1011,0.1014,0.1017,0.1094,0,0.0213,0.0142,0.0129,0.0132,0.011,0.0182,0.0238,0.0317,0.041,0.0512,0.0609,0.0708,0.0706,0.079,0.0864,0.091,0.0995,0.0924,0.1045,0.1046,0.0912,0.0995,0.1028,0.1106,0.1109,0.1112,0.1113,0,0.0134,0.0111,0.0086,0.0144,0.0149,0.0183,0.0345,0.0401,0.0548,0.0634,0.0766,0.0823,0.0934,0.0929,0.1061,0.1044,0.1099,0.1133,0.1137,0.0987,0.0931,0.102,0.1141,0.1138,0.1136,0.1135,0.1133,0,0.0135,0.0111,0.0116,0.0124,0.0166,0.0241,0.0309,0.0446,0.0541,0.0732,0.0808,0.0949,0.1022,0.1119,0.1144,0.1149,0.128,0.1268,0.1196,0.1185,0.1256,0.1241,0.1398,0.1397,0.1397,0.1397,0.1397,0,0.0105,0.0112,0.0132,0.0138,0.0214,0.0263,0.0402,0.0501,0.066,0.0767,0.0877,0.0982,0.109,0.1156,0.1196,0.1212,0.131,0.1216,0.1208,0.1282,0.1269,0.1266,0.1249,0.14,0.1399,0.1399,0.1398,0,0.008,0.0077,0.0096,0.0166,0.0201,0.0274,0.0428,0.0514,0.0675,0.0827,0.0887,0.1025,0.1105,0.1166,0.1291,0.1241,0.1286,0.1288,0.1337,0.1328,0.1135,0.1122,0.1209,0.1205,0.1201,0.1198,0.1196,0,0.0042,0.0041,0.0114,0.0143,0.0181,0.0294,0.0348,0.0517,0.0615,0.0839,0.0886,0.102,0.1096,0.1135,0.1204,0.1252,0.1255,0.1245,0.1215,0.1139,0.1124,0.1116,0.1108,0.119,0.1189,0.1188,0.1187,0,-0.0008,0.0033,0.0062,0.011,0.0174,0.0237,0.035,0.0422,0.0617,0.0757,0.0899,0.0963,0.104,0.1091,0.1129,0.1167,0.1217,0.1209,0.1217,0.1189,0.1118,0.1104,0.11,0.1175,0.1177,0.1178,0.1179,0,-0.0021,-0.0014,0.003,0.0086,0.0139,0.0166,0.024,0.0358,0.0478,0.0737,0.078,0.092,0.1051,0.1051,0.1086,0.109,0.1084,0.1037,0.1054,0.1068,0.0979,0.0865,0.0854,0,0,0,0,0,-0.0038,-0.0041,-0.0011,0.0044,0.0091,0.0111,0.0221,0.0301,0.0494,0.057,0.0699,0.0786,0.0866,0.0923,0.0903,0.0977,0.1046,0.094,0.0989,0.1108,0.1122,0.1025,0,0,0,0,0,0,-0.0057,-0.0036,-0.0032,-0.0005,0.0011,0.0044,0.0094,0.0205,0.0286,0.0492,0.0546,0.0699,0.0782,0.0877,0.0879,0.0893,0.0894,0.1035,0.1032,0.11,0.1113,0.1124,0.1029,0,0,0,0,0]},{"header":{"parameterUnit":"m.s-1","parameterCategory":2,"la1":30.2991,"la2":30.254,"lo1":-89.0895,"lo2":-89.0444,"dy":0.0017,"dx":0.0017,"nx":28,"ny":28,"refTime":"2023-07-19T03:00:00:Z","depth":"4","parameterNumber":3,"parameterNumberName":"V-component_of_CURRENTS"},"data":[0,0,0,0,0,0,0,0,0,0,0,0,0,0,0,0,0,0,0,0,0,0,0,0,0,0,0,0,0,0,0,0,0,0,0,0,0,0,0,0,0,0,0,0,0,0,0,0,0,0,0,0,0,0,0,0,0,0,0.0202,0.0203,0,0.0273,0.0274,0.0275,0.0259,0.0257,0.0256,0.0254,0.0256,0.0258,0.0259,0,0,0,0,0,0,0,0,0,0,0,0,0,0.0109,0.011,0.0202,0.0203,0.0204,0.0273,0.0274,0.0275,0.0259,0.0257,0.0255,0.0254,0.0256,0.0257,0.0259,0,0,0,0,0,0,0,0,0,0,0,0,0,0.0163,0.0111,0.0202,0.0203,0.0204,0.0273,0.0274,0.0276,0.0259,0.0257,0.0255,0.0253,0.0255,0.0257,0.0259,0.0316,0,0,0.0266,0.0267,0,0,0,0,0,0,0,0,0.016,0.0166,0.0202,0.0203,0.0204,0.0254,0.0242,0.0285,0.026,0.024,0.0254,0.0252,0.025,0.0252,0.0273,0.0316,0.0316,0.0266,0.0267,0.0268,0.0269,0,0,0,0,0,0,0,0.0156,0.0163,0.0231,0.0203,0.0204,0.0219,0.0224,0.0251,0.0256,0.0241,0.024,0.0247,0.025,0.0271,0.0273,0.0316,0.0266,0.0268,0.0269,0.027,0.0357,0.0358,0,0,0,0,0,0,0.0145,0.016,0.0229,0.0233,0.0175,0.0223,0.0228,0.0241,0.0257,0.0258,0.0248,0.0246,0.0269,0.027,0.0273,0.031,0.0268,0.027,0.0271,0.0356,0.0357,0.0358,0,0,0,0,0,0,0.0143,0.0151,0.0226,0.0197,0.0207,0.0226,0.0241,0.0244,0.0267,0.0263,0.0262,0.0269,0.0267,0.027,0.0319,0.0311,0.0271,0.0273,0.0355,0.0356,0.0358,0.0404,0,0,0,0,0,0,0.014,0.015,0.016,0.0196,0.0208,0.0285,0.0243,0.0247,0.0274,0.0271,0.028,0.0278,0.0266,0.0316,0.0321,0.0313,0.0275,0.0353,0.0356,0.0357,0.0401,0.0407,0.0412,0,0,0,0,0,0.0136,0.0177,0.0161,0.0169,0.0221,0.0288,0.0297,0.0302,0.0277,0.031,0.0316,0.0278,0.0329,0.0321,0.0326,0.0318,0.0352,0.0355,0.0357,0.0399,0.0406,0.0412,0,0,0,0,0,0,0.0151,0.018,0.0163,0.0209,0.0245,0.0284,0.0321,0.0315,0.0348,0.0343,0.0322,0.0324,0.035,0.0345,0.0335,0.0347,0.0323,0.0326,0.0353,0.0359,0.0365,0.0357,0.0276,0,0,0,0,0,0.0155,0.0189,0.0215,0.0256,0.0275,0.0295,0.0321,0.0329,0.0359,0.037,0.0377,0.0373,0.0367,0.0374,0.0382,0.0418,0.038,0.0406,0.0411,0.0416,0.0414,0.0345,0.0343,0.0366,0.0366,0.0366,0,0,0.0168,0.0193,0.0208,0.026,0.0287,0.0323,0.0308,0.0366,0.0383,0.0367,0.0409,0.0405,0.0383,0.0408,0.0416,0.0402,0.0398,0.0419,0.0423,0.0418,0.0347,0.0345,0.0342,0.0368,0.0367,0.0367,0,0,0.0225,0.0239,0.0281,0.0312,0.036,0.0371,0.0387,0.0435,0.0444,0.0499,0.046,0.0453,0.0494,0.0449,0.0431,0.0475,0.043,0.0483,0.0505,0.0439,0.0436,0.0433,0.0413,0.0407,0.0484,0.0484,0.0484,0,0.0229,0.0282,0.0308,0.0355,0.0374,0.0388,0.0426,0.045,0.0504,0.0505,0.0519,0.0517,0.0494,0.0462,0.0475,0.0479,0.0468,0.048,0.0444,0.0439,0.0435,0.0415,0.0408,0.0486,0.0486,0.0486,0.0486,0,0.0312,0.0344,0.0384,0.0422,0.0453,0.0505,0.052,0.0557,0.0565,0.0563,0.0573,0.0565,0.0547,0.0534,0.0524,0.0478,0.0491,0.0457,0.0422,0.0435,0.0414,0.0406,0.049,0.0489,0.0488,0.0488,0,0,0.0337,0.0416,0.0428,0.0449,0.0488,0.0532,0.0556,0.0576,0.0581,0.0618,0.0611,0.0594,0.058,0.0559,0.0532,0.0485,0.0443,0.0478,0.0473,0.045,0.0349,0.0355,0.0346,0.0416,0.0414,0.0412,0.0358,0,0.0381,0.0467,0.0491,0.0555,0.0589,0.0599,0.0613,0.0627,0.0639,0.0646,0.0602,0.0602,0.0589,0.0592,0.0537,0.045,0.0422,0.0464,0.0347,0.0344,0.0338,0.0335,0.0407,0.0352,0.035,0.0349,0.0348,0,0.0447,0.0488,0.0561,0.0601,0.0617,0.0661,0.0683,0.0703,0.0684,0.0696,0.0678,0.0645,0.0575,0.0574,0.0441,0.0481,0.0433,0.0379,0.0374,0.0351,0.0332,0.0329,0.0332,0.0333,0.0334,0.0335,0.0336,0,0.0459,0.0537,0.0594,0.0615,0.0662,0.0703,0.0728,0.0725,0.0744,0.0737,0.0738,0.0657,0.0625,0.0531,0.0427,0.0436,0.0293,0.0268,0.0238,0.024,0.023,0.0233,0.0194,0.0194,0.0194,0.0194,0.0195,0,0.049,0.0539,0.0624,0.066,0.0718,0.0744,0.0804,0.0815,0.0826,0.083,0.0774,0.0758,0.0617,0.0517,0.0428,0.0308,0.0284,0.0242,0.0214,0.0258,0.0266,0.0225,0.023,0.0193,0.0193,0.0193,0.0194,0,0.0494,0.0552,0.0624,0.0702,0.0737,0.0787,0.0876,0.0899,0.0915,0.0921,0.0921,0.0823,0.0695,0.0559,0.0392,0.0312,0.0191,0.0173,0.0263,0.0241,0.019,0.0198,0.0109,0.0108,0.0108,0.0107,0.0107,0,0.0502,0.0543,0.0657,0.0704,0.076,0.0849,0.0887,0.0948,0.0976,0.096,0.0945,0.0843,0.0763,0.0526,0.039,0.0214,0.0203,0.0147,0.0141,0.0193,0.0175,0.0184,0.0192,0.0106,0.0106,0.0106,0.0106,0,0.0494,0.0551,0.0611,0.0707,0.0792,0.0862,0.0944,0.0975,0.1016,0.1029,0.0965,0.085,0.0707,0.0527,0.0404,0.0279,0.0163,0.0141,0.0141,0.0135,0.0189,0.0173,0.0182,0.0104,0.0104,0.0105,0.0105,0,0.0489,0.0522,0.0614,0.0708,0.0802,0.0862,0.0904,0.0946,0.0986,0.0984,0.0966,0.0827,0.0761,0.0564,0.0441,0.0316,0.028,0.0231,0.0225,0.0226,0.0271,0.0357,0.0296,0,0,0,0,0,0.0468,0.0518,0.0595,0.0705,0.0797,0.0857,0.0925,0.0956,0.1011,0.0968,0.0982,0.086,0.0669,0.058,0.0454,0.0419,0.025,0.0267,0.0187,0.0095,0.0097,0.0129,0,0,0,0,0,0,0.0454,0.0526,0.0587,0.0706,0.0774,0.0863,0.0911,0.0926,0.0917,0.0944,0.0841,0.0831,0.064,0.0748,0.0455,0.0419,0.0349,0.0193,0.019,0.0094,0.0096,0.0098,0.0131,0,0,0,0,0]}]]